Sisseton, SD

3:25 AM CST on January 19, 2017 (GMT -0600)
Sisseton

Weather History for K8D3 - May, 2014

Change the Weather History Date:

Sunday, May 18, 2014

  Actual Average Record
Temperature  
Mean Temperature 61 °F 58 °F  
Max Temperature 74 °F 70 °F 98 °F (1934)
Min Temperature 48 °F 46 °F 31 °F (1968)
Degree Days  
Heating Degree Days 4 8  
Month to date heating degree days 297 185  
Since 1 July heating degree days 9041 8144  
Cooling Degree Days 0 1  
Month to date cooling degree days 0 9  
Year to date cooling degree days 0 10  
Growing Degree Days 12 (Base 50)    
Moisture  
Dew Point 41 °F    
Average Humidity 50    
Maximum Humidity 68    
Minimum Humidity 31    
Precipitation  
Precipitation 0.00 in 0.10 in 0.60 in (1962)
Month to date precipitation 1.48 1.59  
Year to date precipitation 6.12 5.85  
Sea Level Pressure  
Sea Level Pressure 29.88 in    
Wind  
Wind Speed 14 mph (SSW)    
Max Wind Speed 25 mph    
Max Gust Speed 33 mph    
T = Trace of Precipitation, MM = Missing Value Source: NWS Daily Summary

Daily Weather History Graph

Daily Weather History Graph

Search for Another Location

Airport or City:

Trip Planner

Search our weather history database for the weather conditions in past years. The results will help you decide how hot, cold, wet, or windy it might be!

Date:

Astronomy

May. 18, 2014 Rise Set
Actual Time 5:53 AM CDT 8:55 PM CDT
Civil Twilight 5:18 AM CDT 9:31 PM CDT
Nautical Twilight 4:33 AM CDT 10:16 PM CDT
Astronomical Twilight 3:38 AM CDT 11:11 PM CDT
Moon No Moon Rise 9:46 AM CDT (5/18)
Length of Visible Light 16h 13m
Length of Day
15h 02m
Waning Gibbous, 81% of the Moon is Illuminated
May 18
Waning Gibbous
May 21
Last Quarter
May 28
New
Jun 5
First Quarter
Jun 12
Full

Hourly Weather History & Observations

Time (CDT) Temp. Dew Point Humidity Pressure Visibility Wind Dir Wind Speed Gust Speed Precip Events Conditions
12:56 AM 55.0 °F 34.0 °F 45% 29.95 in - WSW 11.5 mph - N/A   Unknown
1:56 AM 55.0 °F 34.0 °F 45% 29.95 in - WSW 13.8 mph - N/A   Unknown
2:56 AM 53.1 °F 34.0 °F 48% 29.95 in - WSW 13.8 mph - N/A   Unknown
3:56 AM 52.0 °F 33.1 °F 49% 29.95 in - SW 13.8 mph - N/A   Unknown
4:56 AM 50.0 °F 36.0 °F 59% 29.95 in - SW 9.2 mph - N/A   Unknown
5:56 AM 50.0 °F 39.0 °F 66% 29.95 in - WSW 5.8 mph - N/A   Unknown
6:56 AM 51.1 °F 41.0 °F 68% 29.95 in - South 3.5 mph - N/A   Unknown
7:56 AM 55.9 °F 43.0 °F 62% 29.94 in - South 5.8 mph - N/A   Unknown
8:56 AM 57.9 °F 45.0 °F 62% 29.95 in - SW 9.2 mph - N/A   Unknown
9:56 AM 61.0 °F 46.0 °F 58% 29.94 in - South 11.5 mph - N/A   Unknown
10:56 AM 64.9 °F 48.0 °F 54% 29.92 in - SSW 12.7 mph - N/A   Unknown
11:56 AM 64.9 °F 46.0 °F 50% 29.90 in - SW 19.6 mph - N/A   Unknown
12:56 PM 72.0 °F 46.0 °F 40% 29.86 in - WSW 20.7 mph 28.8 mph N/A   Unknown
1:56 PM 72.0 °F 45.0 °F 38% 29.85 in - WSW 23.0 mph 28.8 mph N/A   Unknown
2:56 PM 72.0 °F 43.0 °F 35% 29.83 in - SW 17.3 mph 27.6 mph N/A   Unknown
3:56 PM 73.0 °F 42.1 °F 33% 29.81 in - SW 19.6 mph 25.3 mph N/A   Unknown
4:56 PM 72.0 °F 39.9 °F 31% 29.81 in - SSW 18.4 mph 26.5 mph N/A   Unknown
5:56 PM 71.1 °F 39.9 °F 32% 29.81 in - SSW 20.7 mph 26.5 mph N/A   Unknown
6:56 PM 71.1 °F 39.9 °F 32% 29.80 in - South 17.3 mph - N/A   Unknown
7:56 PM 68.0 °F 41.0 °F 37% 29.80 in - South 11.5 mph - N/A   Unknown
8:56 PM 66.0 °F 39.9 °F 38% 29.80 in - South 11.5 mph - N/A   Unknown
9:56 PM 64.0 °F 41.0 °F 43% 29.80 in - South 11.5 mph - N/A   Unknown
10:56 PM 61.0 °F 42.1 °F 50% 29.79 in - SSE 12.7 mph - N/A   Unknown
11:56 PM 61.0 °F 41.0 °F 48% 29.77 in - SSE 16.1 mph - N/A   Unknown